Blattenbach Aussen Messungen

Zurück zum Überblick

Zeitpunkt Temperatur Temperatur Kabelsensor Luftfeuchte
26.03.2019 14:32:01 8,9 C 7,4 C 49,0%
26.03.2019 14:25:02 8,8 C 7,4 C 49,0%
26.03.2019 14:17:59 9,3 C 7,4 C 48,0%
26.03.2019 14:11:01 9,7 C 7,4 C 46,0%
26.03.2019 14:04:03 9,6 C 7,4 C 48,0%
26.03.2019 13:57:01 9,0 C 7,3 C 50,0%
26.03.2019 13:50:00 8,8 C 7,3 C 49,0%
26.03.2019 13:43:04 8,7 C 7,3 C 49,0%
26.03.2019 13:36:03 8,7 C 7,3 C 48,0%
26.03.2019 13:29:01 8,6 C 7,3 C 50,0%
26.03.2019 13:22:03 8,5 C 7,3 C 49,0%
26.03.2019 13:15:00 8,3 C 7,3 C 51,0%
26.03.2019 13:08:03 8,5 C 7,3 C 51,0%
26.03.2019 13:01:01 9,2 C 7,2 C 51,0%
26.03.2019 12:54:00 9,3 C 7,2 C 52,0%
26.03.2019 12:47:01 9,5 C 7,2 C 52,0%
26.03.2019 12:40:02 9,3 C 7,2 C 52,0%
26.03.2019 12:33:04 8,4 C 7,2 C 52,0%
26.03.2019 12:26:04 7,6 C 7,2 C 53,0%
26.03.2019 12:18:59 7,1 C 7,2 C 54,0%
26.03.2019 12:12:03 6,9 C 7,2 C 55,0%
26.03.2019 12:05:03 7,1 C 7,2 C 54,0%
26.03.2019 11:58:00 7,1 C 7,2 C 54,0%
26.03.2019 11:51:04 7,3 C 7,2 C 55,0%
26.03.2019 11:44:01 7,4 C 7,2 C 55,0%
26.03.2019 11:37:03 7,1 C 7,2 C 57,0%
26.03.2019 11:30:03 6,2 C 7,2 C 57,0%
26.03.2019 11:23:00 5,8 C 7,2 C 56,0%
26.03.2019 11:16:03 5,9 C 7,2 C 56,0%
26.03.2019 11:09:02 6,3 C 7,2 C 57,0%
26.03.2019 11:01:59 6,1 C 7,2 C 59,0%
26.03.2019 10:55:03 6,3 C 7,2 C 59,0%
26.03.2019 10:48:01 6,3 C 7,2 C 60,0%
26.03.2019 10:41:00 6,2 C 7,2 C 61,0%
26.03.2019 10:34:04 6,2 C 7,2 C 61,0%
26.03.2019 10:27:01 6,4 C 7,2 C 61,0%
26.03.2019 10:20:04 6,5 C 7,2 C 62,0%
26.03.2019 10:13:01 6,4 C 7,2 C 62,0%
26.03.2019 10:06:03 6,5 C 7,2 C 61,0%
26.03.2019 09:59:02 6,7 C 7,2 C 62,0%
26.03.2019 09:52:00 6,6 C 7,2 C 62,0%
26.03.2019 09:45:02 6,4 C 7,2 C 62,0%
26.03.2019 09:38:01 6,4 C 7,1 C 64,0%
26.03.2019 09:31:00 6,1 C 7,1 C 65,0%
26.03.2019 09:24:03 6,1 C 7,0 C 65,0%
26.03.2019 09:17:02 6,0 C 7,0 C 65,0%
26.03.2019 09:10:03 6,1 C 7,0 C 65,0%
26.03.2019 09:03:02 5,8 C 7,0 C 66,0%
26.03.2019 08:56:01 5,6 C 7,0 C 67,0%
26.03.2019 08:49:00 5,3 C 7,0 C 67,0%